Weather in Playa de las Americas

Spain     28°03′33″N   16°43′53″W
temp.,
°C
wind,
m/s
gust,
m/s
humid.,
%
clouds,
%
prec.,
mm/h
press.,
hPa
HPBL,
m
4 december, sat
sat400:00+19se22626 0.0 1022727
03:00+19ene67580 0.0 1021447
06:00+19ne45580 0.0 1022707
09:00+19ne57560 0.0 1024702
12:00+20ene68500 0.0 1023946
15:00+21e98480 0.0 1022648
18:00+20e99490 0.0 1022486
21:00+20ne56550 0.0 1024620
5 december, sun
sun500:00+19ne68500 0.0 1024491
03:00+19ne56520 0.0 1023481
06:00+19ne35540 0.0 1023602
09:00+19ne35570 0.0 1025608
12:00+20ne45560 0.0 1025858
15:00+21ene35580 0.0 1022685
18:00+20ne24635 0.0 1023454
21:00+20ene55616 0.0 1024589
6 december, mon
mon600:00+19ne2462100 0.0 1024631
03:00+19ne566490 0.0 1023665
06:00+19ene466523 0.0 1022742
09:00+19ene556347 0.0 1024785
12:00+20ene566090 0.0 10241061
15:00+20ne356210 0.0 1021837
18:00+20ne236790 0.0 1021960
21:00+20ene566391 0.0 1021548
7 december, tue
tue700:00+19ne456785 0.0 1022654
03:00+19wnw336828 0.0 1022769
06:00+18e326997 0.0 1022520
09:00+19e2264100 0.0 1023421
12:00+20ene2359100 0.0 1023555
15:00+19ese22653 0.0 1021541
18:00+20ese436810 0.0 1022563
21:00+20nne22665 0.0 1023613
8 december, wed
wed800:00+19ne22665 0.0 1023688
03:00+19e12678 0.0 1022607
06:00+19e21670 0.0 1022562
09:00+20e43624 0.0 1024584
12:00+20e136112 0.0 1025727
15:00+20ese436427 0.0 1023837
18:00+20ese446616 0.0 1023663
21:00+20ese22630 0.0 1025626